GLENN Weather Reports


time (UTC)temp
F
wind
direction
speed
knots
gust
knots
rain 1hr
in
rain 24hr
in
rain mn
in
humidity
%
barometer
mb
20260906023010 72 88 16.5 29.5 0.00 0.00 0.00 32 1016.6
20260906021514 71 102 7.8 15.6 0.00 0.00 0.00 32 1016.6
20260906020017 71 42 5.2 13.0 0.00 0.00 0.00 33 1016.8
20260906014525 71 48 7.0 10.4 0.00 0.00 0.00 34 1016.8
20260906013005 72 319 0.0 9.6 0.00 0.00 0.00 42 1017.1
20260906011513 74 59 1.7 11.3 0.00 0.00 0.00 32 1016.9
20260906010045 75 337 2.6 10.4 0.00 0.00 0.00 32 1016.9
20260906004524 75 105 5.2 7.8 0.00 0.00 0.00 32 1016.9
20260906003030 75 194 2.6 6.1 0.00 0.00 0.00 39 1016.6
20260906001509 77 352 3.5 7.8 0.00 0.00 0.00 34 1016.8
20260906000019 76 350 1.7 9.6 0.00 0.00 0.00 37 1017.0
20260905234521 76 299 1.7 4.3 0.00 0.00 0.00 39 1017.0
20260905233027 75 284 1.7 5.2 0.00 0.00 0.00 38 1017.1
20260905231530 75 340 1.7 6.1 0.00 0.00 0.00 39 1017.2
20260905230028 75 317 1.7 7.0 0.00 0.00 0.00 42 1017.2
20260905224520 74 43 0.9 5.2 0.00 0.00 0.00 42 1017.4
20260905223002 74 293 1.7 6.1 0.00 0.00 0.00 42 1017.4
20260905221508 74 259 1.7 15.6 0.00 0.00 0.00 42 1017.6
20260905220012 73 281 4.3 7.8 0.00 0.00 0.00 45 1017.7
20260905214516 73 286 2.6 6.1 0.00 0.00 0.00 44 1017.9
20260905213004 72 267 2.6 6.1 0.00 0.00 0.00 45 1018.0
20260905211508 72 352 2.6 7.0 0.00 0.00 0.00 44 1018.2
20260905210010 71 242 3.5 7.0 0.00 0.00 0.00 46 1018.3
20260905204511 71 103 1.7 3.5 0.00 0.00 0.00 45 1018.4
20260905203019 70 316 1.7 7.0 0.00 0.00 0.00 49 1018.8
20260905201505 69 341 2.6 9.6 0.00 0.00 0.00 48 1018.9
20260905200009 69 304 1.7 6.1 0.00 0.00 0.00 48 1019.2
20260905194512 68 9 3.5 8.7 0.00 0.00 0.00 49 1019.2
20260905193017 67 334 2.6 6.1 0.00 0.00 0.00 52 1019.3
20260905191524 67 290 4.3 7.8 0.00 0.00 0.00 51 1019.3
20260905190006 66 310 4.3 7.0 0.00 0.00 0.00 52 1019.6
20260905184512 64 352 3.5 7.0 0.00 0.00 0.00 54 1019.6
20260905183027 64 287 3.5 8.7 0.00 0.00 0.00 55 1019.8
20260905181521 63 307 0.9 7.0 0.00 0.00 0.00 56 1020.0
20260905180027 62 317 2.6 6.1 0.00 0.00 0.00 58 1020.2
20260905174508 62 307 2.6 5.2 0.00 0.00 0.00 60 1020.4
20260905173027 61 221 3.5 7.0 0.00 0.00 0.00 60 1020.6
20260905171518 60 198 1.7 6.1 0.00 0.00 0.00 61 1020.6
20260905170026 59 230 2.6 6.1 0.00 0.00 0.00 62 1020.8
20260905164529 59 305 0.9 5.2 0.00 0.00 0.00 63 1020.8
20260905163010 58 159 3.5 6.1 0.00 0.00 0.00 63 1020.7
20260905161515 58 270 2.6 7.0 0.00 0.00 0.00 63 1020.7
20260905160027 57 233 2.6 5.2 0.00 0.00 0.00 64 1020.6
20260905154526 56 223 1.7 6.1 0.00 0.00 0.00 67 1020.6
20260905153030 54 198 1.7 4.3 0.00 0.00 0.00 70 1020.7
20260905151514 52 167 2.6 4.3 0.00 0.00 0.00 73 1020.6
20260905150022 52 196 0.9 3.5 0.00 0.00 0.00 74 1020.5
20260905144526 55 232 2.6 3.5 0.00 0.00 0.00 68 1020.4
20260905143034 53 100 0.9 1.7 0.00 0.00 0.00 72 1020.3
20260905141523 51 103 0.9 2.6 0.00 0.00 0.00 74 1020.3
20260905140019 52 132 0.9 3.5 0.00 0.00 0.00 73 1020.1
20260905134532 51 135 1.7 3.5 0.00 0.00 0.00 73 1020.0
20260905133005 51 175 2.6 8.7 0.00 0.00 0.00 74 1019.8
20260905131509 50 148 2.6 4.3 0.00 0.00 0.00 76 1019.5
20260905130008 50 139 2.6 4.3 0.00 0.00 0.00 75 1019.1
20260905124511 50 148 2.6 4.3 0.00 0.00 0.00 75 1019.1
20260905123006 50 140 2.6 6.1 0.00 0.00 0.00 75 1019.0
20260905121504 50 132 4.3 7.0 0.00 0.00 0.00 75 1018.7
20260905120008 50 141 5.2 7.8 0.00 0.00 0.00 75 1018.7
20260905114507 51 139 7.0 9.6 0.00 0.00 0.00 74 1018.4
20260905113003 51 149 4.3 9.6 0.00 0.00 0.00 73 1018.3
20260905111508 51 164 6.1 7.8 0.00 0.00 0.00 73 1018.3
20260905110011 51 161 4.3 7.8 0.00 0.00 0.00 74 1018.3
20260905104513 52 155 4.3 12.2 0.00 0.00 0.00 72 1018.1
20260905103009 53 159 11.3 13.9 0.00 0.00 0.00 72 1017.9
20260905101511 52 153 8.7 13.9 0.00 0.00 0.00 74 1017.8
20260905100005 51 146 9.6 15.6 0.00 0.00 0.00 75 1017.6
20260905094513 52 175 6.1 7.8 0.00 0.00 0.00 72 1017.6
20260905093013 51 95 6.1 9.6 0.00 0.00 0.00 74 1017.5
20260905091515 51 123 1.7 4.3 0.00 0.00 0.00 74 1018.2
20260905090009 51 157 4.3 5.2 0.00 0.00 0.00 74 1018.0
20260905084509 53 161 1.7 2.6 0.00 0.00 0.00 70 1017.2
20260905083020 54 132 0.9 4.3 0.00 0.00 0.00 66 1017.5
20260905081515 55 313 0.0 3.5 0.00 0.00 0.00 63 1016.8
20260905080019 55 282 1.7 7.8 0.00 0.00 0.00 60 1016.3
20260905074513 55 72 0.0 1.7 0.00 0.00 0.00 57 1016.0
20260905073010 55 192 0.0 7.8 0.00 0.00 0.00 55 1015.7
20260905071519 55 188 3.5 7.0 0.00 0.00 0.00 52 1015.7
20260905070023 55 158 7.0 9.6 0.00 0.00 0.00 50 1015.7
20260905064521 59 133 1.7 2.6 0.00 0.00 0.00 44 1015.6
20260905063007 60 331 0.9 3.5 0.00 0.00 0.00 43 1015.3
20260905061517 59 62 0.9 3.5 0.00 0.00 0.00 45 1015.4
20260905060023 60 80 0.9 2.6 0.00 0.00 0.00 43 1015.3
20260905054531 59 92 1.7 2.6 0.00 0.00 0.00 43 1015.0
20260905053028 65 9 0.0 7.0 0.00 0.00 0.00 36 1015.0
20260905051514 65 105 1.7 3.5 0.00 0.00 0.00 33 1014.9
20260905050022 65 110 2.6 3.5 0.00 0.00 0.00 34 1015.0
20260905044524 64 71 1.7 2.6 0.00 0.00 0.00 34 1015.3
20260905043004 66 297 0.9 6.1 0.00 0.00 0.00 34 1015.4
20260905041510 66 109 4.3 6.1 0.00 0.00 0.00 33 1015.3
20260905040027 66 107 4.3 5.2 0.00 0.00 0.00 33 1015.4
20260905034502 66 103 1.7 3.5 0.00 0.00 0.00 34 1015.6
20260905033005 67 79 1.7 3.5 0.00 0.00 0.00 33 1015.6
20260905031509 66 91 1.7 2.6 0.00 0.00 0.00 33 1015.6
20260905030012 66 78 1.7 2.6 0.00 0.00 0.00 35 1015.6
20260905024517 66 57 1.7 2.6 0.00 0.00 0.00 34 1015.4